FENGYUN 1C DEB

Satellite information

Favourite Embed

Satellite Type and Status

DEBRISIN ORBIT

Key statistics

Satellite FENGYUN 1C DEB at a glance.

Uptime

9615

Days in orbit

Revolutions

≈ 14.2

Per day

Orbit

SSO

Sun Synchronous Orbit

Inclination

98.8

Latest

Satellite identification and parameters

Extended collection of information and parameters for FENGYUN 1C DEB.

Object identification

Identified? True

Debris? True

Object name: FENGYUN 1C DEB

International designator: 1999-025AGN

Object number (NORAD): 30475

Object ID (CCSDS): 30475

Country: PEOPLES REPUBLIC OF CHINA (PRC)

Current information (Y/N): Y

RCS size: SMALL

Orbital parameters

Period: 101.747 minutes

Inclination: 98.7964 deg

SMA: 7219.535 km

Apoapsis: 872.82 km

Periapsis: 809.979 km

RAAN: 290.0168 deg

Eccentricy: 0.00435211

Argument of periapsis: 213.5422 deg

Mean anomaly: 173.3216 deg

Mean motion: 14.15268874 rev/day

Mean motion (dot): 0.00002176 rev/day2

B* drag term: 0.0011305747 1/REarth

Two-line elements (TLE)

Creation date: Sept. 4, 2025, 10:13 a.m.

Reference frame: TEME

Reference center: EARTH

Epoch: Sept. 4, 2025, 2:22 a.m. UTC

TLE line 0: 0 FENGYUN 1C DEB

TLE line 1: 1 30475U 99025AGN 25247.09910367 .00002176 00000-0 11306-2 0 9998

TLE line 2: 2 30475 98.7964 290.0168 0043521 213.5422 173.3216 14.15268874955428

Live tracking on map

Real-time ground track for satellite FENGYUN 1C DEB.

In-orbit conjunctions

A list of the most updated potential collisions computed for object FENGYUN 1C DEB.

Target Orbit TCA Probability of collision Miss distance Type
SL-3 R/B SSO 2025-07-08 02:16:26 0.002571281 95.0 (m) ROCKET BODY
COSMOS 2322 LEO 2025-06-21 10:12:55 0.0001591522 198.0 (m) PAYLOAD
CZ-6A DEB LEO 2025-05-19 08:32:38 0.000103177 316.0 (m) DEBRIS
COSMOS 2251 DEB LEO 2024-12-30 07:32:33 0.0001886555 157.0 (m) DEBRIS

Associated space launch

Chinese polar orbiting meteorological satellite

FENGYUN 1C DEB was lifted into orbit during the mission ‘Long March 4B | Feng Yun 1C’, on board a Long March 4B space rocket.

The launch took place on May 10, 1999, 1:33 a.m. from Launch Complex 7.

For more information about the launch, click the button.

Launch to space Long March 4B | Feng Yun 1C
Long March 4B | Feng Yun 1C

Agency: N/A

Status: Launch Successful

Launch date: May 10, 1999, 1:33 a.m. UTC

Rocket: Long March 4B

Launch pad: Launch Complex 7

Location: Taiyuan Satellite Launch Center, People's Republic of China

...

Latest news about this satellite

There are no fresh news available about this satellite. Check back as we update our databases every day.


Newsletter sign-up

Weekly statistics, charts and insights to help you stay on top of the space industry.